STARLINK-35452 (66104 NORAD) Tracking and Keplerian Element Data

This shows tracking and keplerian element data for the satellite.

Feedback or suggestion? Click here.




ElementValue
Catalog66104
NameSTARLINK-35452
Epoch Orbit1066
Epoch Day353.48907448
Epoch Year2025
RAAN116.5236
Inclination53.1601
Eccentricity0.0001404
Argument of Perigee100.3657
Mean Anonmoly259.7503
Mean Motion15.30199405
Decay Rate0.00016218
L11 66104U 25236U 25353.48907448 .00016218 00000+0 55852-3 0 9992
L22 66104 53.1601 116.5236 0001404 100.3657 259.7503 15.30199405 10661



Live tracking and technical data element details for STARLINK-35452 (NORAD 66104). STARLINK-35452 can be tracked NOW for your location showing map with azimuth and elevation plus other details from your city location.







IsCatalogInMostPopularTable: catalog: 66104, numindb: 4
Update: records affected: 1



GetName: 66104 STARLINK-35452

Hit Count: updated at: Sun, 08 Feb 2026 08:53:20 GMT